| time (UTC) | temp F | wind direction | speed MPH | gust MPH | rain 1hr in | rain 24hr in | rain mn in | humidity % | barometer mb |
| 20260903014510 | 84 | 267 | 0.0 | 0.0 | 0.00 | 0.00 | 0.00 | 27 | 1000.5 |
| 20260903013013 | 86 | 267 | 0.0 | 0.0 | 0.00 | 0.00 | 0.00 | 26 | 1000.5 |
| 20260903011508 | 88 | 267 | 0.0 | 1.0 | 0.00 | 0.00 | 0.00 | 24 | 1000.5 |
| 20260903010008 | 90 | 267 | 0.0 | 1.0 | 0.00 | 0.00 | 0.00 | 23 | 1000.5 |
| 20260903004507 | 92 | 267 | 0.0 | 1.0 | 0.00 | 0.00 | 0.00 | 21 | 1000.4 |
| 20260903003008 | 95 | 267 | 0.0 | 1.0 | 0.00 | 0.00 | 0.00 | 20 | 1000.4 |
| 20260903001506 | 96 | 267 | 0.0 | 1.0 | 0.00 | 0.00 | 0.00 | 19 | 1000.4 |
| 20260903000005 | 96 | 252 | 0.0 | 2.0 | 0.00 | 0.00 | 0.00 | 19 | 1000.6 |
| 20260902234504 | 97 | 242 | 0.0 | 1.0 | 0.00 | 0.00 | 0.00 | 19 | 1000.7 |
| 20260902233006 | 97 | 236 | 0.0 | 2.0 | 0.00 | 0.00 | 0.00 | 20 | 1000.8 |
| 20260902231502 | 98 | 222 | 0.0 | 1.0 | 0.00 | 0.00 | 0.00 | 19 | 1000.9 |
| 20260902230107 | 98 | 221 | 0.0 | 2.0 | 0.00 | 0.00 | 0.00 | 20 | 1001.0 |
| 20260902224559 | 98 | 219 | 0.0 | 1.0 | 0.00 | 0.00 | 0.00 | 20 | 1001.3 |
| 20260902223056 | 97 | 219 | 0.0 | 2.0 | 0.00 | 0.00 | 0.00 | 21 | 1001.5 |
| 20260902221557 | 98 | 209 | 0.0 | 1.0 | 0.00 | 0.00 | 0.00 | 20 | 1001.6 |
| 20260902220052 | 98 | 230 | 0.0 | 2.0 | 0.00 | 0.00 | 0.00 | 19 | 1001.9 |
| 20260902214549 | 97 | 226 | 0.0 | 1.0 | 0.00 | 0.00 | 0.00 | 22 | 1002.1 |
| 20260902213051 | 97 | 225 | 0.0 | 3.0 | 0.00 | 0.00 | 0.00 | 20 | 1002.3 |
| 20260902211548 | 96 | 311 | 0.0 | 3.0 | 0.00 | 0.00 | 0.00 | 19 | 1002.6 |
| 20260902210042 | 97 | 293 | 0.0 | 1.0 | 0.00 | 0.00 | 0.00 | 22 | 1002.8 |
| 20260902204540 | 96 | 240 | 0.0 | 2.0 | 0.00 | 0.00 | 0.00 | 24 | 1003.0 |
| 20260902203041 | 96 | 236 | 0.0 | 1.0 | 0.00 | 0.00 | 0.00 | 22 | 1003.2 |
| 20260902201533 | 95 | 209 | 0.0 | 2.0 | 0.00 | 0.00 | 0.00 | 25 | 1003.4 |
| 20260902200031 | 94 | 208 | 0.0 | 1.0 | 0.00 | 0.00 | 0.00 | 23 | 1003.6 |
| 20260902194528 | 94 | 213 | 0.0 | 5.0 | 0.00 | 0.00 | 0.00 | 25 | 1004.1 |
| 20260902193026 | 93 | 269 | 0.0 | 3.0 | 0.00 | 0.00 | 0.00 | 24 | 1004.2 |
| 20260902191526 | 92 | 206 | 0.0 | 5.0 | 0.00 | 0.00 | 0.00 | 22 | 1004.6 |
| 20260902190025 | 92 | 42 | 2.0 | 5.0 | 0.00 | 0.00 | 0.00 | 22 | 1005.0 |
| 20260902184515 | 91 | 26 | 0.0 | 2.0 | 0.00 | 0.00 | 0.00 | 26 | 1005.3 |
| 20260902183013 | 90 | 26 | 2.0 | 6.0 | 0.00 | 0.00 | 0.00 | 23 | 1005.5 |
| 20260902181510 | 89 | 263 | 0.0 | 7.0 | 0.00 | 0.00 | 0.00 | 25 | 1005.8 |
| 20260902180008 | 89 | 5 | 3.0 | 7.0 | 0.00 | 0.00 | 0.00 | 24 | 1006.2 |
| 20260902174506 | 88 | 251 | 2.0 | 8.0 | 0.00 | 0.00 | 0.00 | 24 | 1006.6 |
| 20260902173002 | 87 | 12 | 1.0 | 9.0 | 0.00 | 0.00 | 0.00 | 25 | 1006.8 |
| 20260902171603 | 87 | 315 | 2.0 | 6.0 | 0.00 | 0.00 | 0.00 | 26 | 1006.8 |
| 20260902170056 | 86 | 5 | 2.0 | 7.0 | 0.00 | 0.00 | 0.00 | 26 | 1007.1 |
| 20260902164558 | 85 | 325 | 2.0 | 7.0 | 0.00 | 0.00 | 0.00 | 27 | 1007.3 |
| 20260902163049 | 85 | 22 | 2.0 | 10.0 | 0.00 | 0.00 | 0.00 | 27 | 1007.4 |
| 20260902161546 | 84 | 66 | 3.0 | 9.0 | 0.00 | 0.00 | 0.00 | 27 | 1007.4 |
| 20260902160049 | 83 | 40 | 5.0 | 9.0 | 0.00 | 0.00 | 0.00 | 28 | 1007.5 |
| 20260902154548 | 81 | 9 | 3.0 | 8.0 | 0.00 | 0.00 | 0.00 | 31 | 1007.4 |
| 20260902153034 | 74 | 27 | 4.0 | 9.0 | 0.00 | 0.00 | 0.00 | 39 | 1007.3 |
| 20260902151531 | 69 | 65 | 0.0 | 0.0 | 0.00 | 0.00 | 0.00 | 67 | 1007.4 |
| 20260902150031 | 66 | 65 | 0.0 | 0.0 | 0.00 | 0.00 | 0.00 | 74 | 1007.6 |
| 20260902144530 | 64 | 65 | 0.0 | 0.0 | 0.00 | 0.00 | 0.00 | 75 | 1007.6 |
| 20260902143029 | 61 | 65 | 0.0 | 1.0 | 0.00 | 0.00 | 0.00 | 81 | 1007.9 |
| 20260902141528 | 58 | 65 | 0.0 | 0.0 | 0.00 | 0.00 | 0.00 | 85 | 1007.9 |
| 20260902140027 | 57 | 65 | 0.0 | 0.0 | 0.00 | 0.00 | 0.00 | 85 | 1007.8 |
| 20260902134526 | 56 | 65 | 0.0 | 0.0 | 0.00 | 0.00 | 0.00 | 86 | 1007.6 |
| 20260902133025 | 56 | 65 | 0.0 | 1.0 | 0.00 | 0.00 | 0.00 | 86 | 1007.5 |
| 20260902131523 | 56 | 65 | 0.0 | 0.0 | 0.00 | 0.00 | 0.00 | 85 | 1007.5 |
| 20260902130022 | 55 | 65 | 0.0 | 0.0 | 0.00 | 0.00 | 0.00 | 85 | 1007.2 |
| 20260902124520 | 55 | 65 | 0.0 | 0.0 | 0.00 | 0.00 | 0.00 | 85 | 1007.0 |
| 20260902123019 | 56 | 65 | 0.0 | 2.0 | 0.00 | 0.00 | 0.00 | 85 | 1006.8 |
| 20260902121514 | 56 | 65 | 0.0 | 0.0 | 0.00 | 0.00 | 0.00 | 85 | 1006.5 |
| 20260902120112 | 57 | 65 | 0.0 | 0.0 | 0.00 | 0.00 | 0.00 | 85 | 1006.3 |
| 20260902114510 | 57 | 65 | 0.0 | 0.0 | 0.00 | 0.00 | 0.00 | 84 | 1006.2 |
| 20260902113007 | 57 | 65 | 0.0 | 1.0 | 0.00 | 0.00 | 0.00 | 84 | 1006.0 |
| 20260902111505 | 58 | 65 | 0.0 | 1.0 | 0.00 | 0.00 | 0.00 | 83 | 1005.9 |
| 20260902110007 | 58 | 65 | 0.0 | 1.0 | 0.00 | 0.00 | 0.00 | 82 | 1005.7 |
| 20260902104501 | 59 | 65 | 0.0 | 0.0 | 0.00 | 0.00 | 0.00 | 82 | 1005.7 |
| 20260902103111 | 59 | 65 | 0.0 | 0.0 | 0.00 | 0.00 | 0.00 | 82 | 1005.7 |
| 20260902094614 | 60 | 65 | 0.0 | 0.0 | 0.00 | 0.00 | 0.00 | 80 | 1005.7 |
| 20260902093110 | 61 | 65 | 0.0 | 0.0 | 0.00 | 0.00 | 0.00 | 79 | 1005.9 |
| 20260902091553 | 61 | 65 | 0.0 | 0.0 | 0.00 | 0.00 | 0.00 | 80 | 1005.7 |
| 20260902090051 | 62 | 65 | 0.0 | 2.0 | 0.00 | 0.00 | 0.00 | 80 | 1005.7 |
| 20260902084549 | 62 | 65 | 0.0 | 0.0 | 0.00 | 0.00 | 0.00 | 79 | 1005.9 |
| 20260902083045 | 62 | 65 | 0.0 | 0.0 | 0.00 | 0.00 | 0.00 | 77 | 1005.5 |
| 20260902081543 | 63 | 65 | 0.0 | 0.0 | 0.00 | 0.00 | 0.00 | 76 | 1005.3 |
| 20260902080040 | 64 | 65 | 0.0 | 0.0 | 0.00 | 0.00 | 0.00 | 74 | 1005.4 |
| 20260902074540 | 64 | 65 | 0.0 | 2.0 | 0.00 | 0.00 | 0.00 | 73 | 1005.4 |
| 20260902073035 | 65 | 65 | 1.0 | 4.0 | 0.00 | 0.00 | 0.00 | 73 | 1005.4 |
| 20260902071532 | 66 | 65 | 0.0 | 0.0 | 0.00 | 0.00 | 0.00 | 72 | 1005.2 |
| 20260902070029 | 66 | 65 | 0.0 | 1.0 | 0.00 | 0.00 | 0.00 | 71 | 1005.2 |
| 20260902064526 | 67 | 65 | 0.0 | 0.0 | 0.00 | 0.00 | 0.00 | 70 | 1005.0 |
| 20260902063022 | 68 | 65 | 0.0 | 0.0 | 0.00 | 0.00 | 0.00 | 68 | 1004.8 |
| 20260902061522 | 69 | 65 | 0.0 | 0.0 | 0.00 | 0.00 | 0.00 | 67 | 1004.9 |
| 20260902060018 | 69 | 65 | 0.0 | 0.0 | 0.00 | 0.00 | 0.00 | 66 | 1004.9 |
| 20260902054525 | 70 | 65 | 0.0 | 1.0 | 0.00 | 0.00 | 0.00 | 65 | 1004.9 |
| 20260902053018 | 71 | 65 | 0.0 | 1.0 | 0.00 | 0.00 | 0.00 | 64 | 1004.9 |
| 20260902051514 | 71 | 66 | 0.0 | 2.0 | 0.00 | 0.00 | 0.00 | 63 | 1004.9 |
| 20260902050030 | 71 | 67 | 0.0 | 0.0 | 0.00 | 0.00 | 0.00 | 63 | 1004.7 |
| 20260902044515 | 71 | 67 | 0.0 | 0.0 | 0.00 | 0.00 | 0.00 | 62 | 1004.6 |
| 20260902043018 | 72 | 67 | 0.0 | 0.0 | 0.00 | 0.00 | 0.00 | 61 | 1004.8 |
| 20260902041521 | 72 | 67 | 0.0 | 0.0 | 0.00 | 0.00 | 0.00 | 61 | 1005.0 |
| 20260902040019 | 72 | 67 | 0.0 | 1.0 | 0.00 | 0.00 | 0.00 | 61 | 1005.0 |
| 20260902034513 | 72 | 67 | 0.0 | 1.0 | 0.00 | 0.00 | 0.00 | 61 | 1005.1 |
| 20260902033012 | 73 | 67 | 0.0 | 0.0 | 0.00 | 0.00 | 0.00 | 59 | 1005.4 |
| 20260902031511 | 74 | 67 | 0.0 | 0.0 | 0.00 | 0.00 | 0.00 | 59 | 1005.5 |
| 20260902030011 | 74 | 67 | 0.0 | 1.0 | 0.00 | 0.00 | 0.00 | 58 | 1005.5 |
| 20260902024511 | 75 | 67 | 0.0 | 1.0 | 0.00 | 0.00 | 0.00 | 58 | 1005.1 |
| 20260902023010 | 75 | 67 | 0.0 | 1.0 | 0.00 | 0.00 | 0.00 | 57 | 1004.9 |
| 20260902021514 | 75 | 67 | 0.0 | 1.0 | 0.00 | 0.00 | 0.00 | 57 | 1004.6 |
| 20260902020009 | 76 | 67 | 0.0 | 1.0 | 0.00 | 0.00 | 0.00 | 56 | 1004.3 |